| time (UTC) | temp C | wind direction | speed KPH | gust KPH | rain 1hr cm | rain 24hr cm | rain mn cm | humidity % | barometer mb |
| 20260504050444 | 8 | 154 | 0.0 | 0.0 | 0.00 | 0.00 | 0.00 | 96 | 1010.4 |
| 20260504045942 | 8 | 157 | 0.0 | 0.0 | 0.00 | 0.00 | 0.00 | 96 | 1010.4 |
| 20260504045437 | 8 | 156 | 0.0 | 0.0 | 0.00 | 0.00 | 0.00 | 96 | 1010.7 |
| 20260504044933 | 8 | 156 | 0.0 | 0.0 | 0.00 | 0.00 | 0.00 | 96 | 1010.7 |
| 20260504044431 | 8 | 156 | 0.0 | 0.0 | 0.00 | 0.00 | 0.00 | 96 | 1010.4 |
| 20260504043928 | 8 | 156 | 0.0 | 0.0 | 0.00 | 0.00 | 0.00 | 95 | 1010.7 |
| 20260504043425 | 8 | 156 | 0.0 | 0.0 | 0.00 | 0.00 | 0.00 | 95 | 1010.7 |
| 20260504042923 | 8 | 156 | 0.0 | 0.0 | 0.00 | 0.00 | 0.00 | 95 | 1011.1 |
| 20260504042419 | 8 | 156 | 0.0 | 0.0 | 0.00 | 0.00 | 0.00 | 95 | 1010.7 |
| 20260504041916 | 8 | 155 | 0.0 | 0.0 | 0.00 | 0.00 | 0.00 | 94 | 1010.7 |
| 20260504041412 | 8 | 156 | 0.0 | 0.0 | 0.00 | 0.00 | 0.00 | 94 | 1010.7 |
| 20260504040908 | 8 | 154 | 0.0 | 0.0 | 0.00 | 0.00 | 0.00 | 94 | 1010.7 |
| 20260504040406 | 8 | 154 | 0.0 | 0.0 | 0.00 | 0.00 | 0.00 | 94 | 1010.7 |
| 20260504035901 | 8 | 157 | 0.0 | 0.0 | 0.00 | 0.05 | 0.05 | 94 | 1010.7 |
| 20260504035359 | 8 | 156 | 0.0 | 0.0 | 0.00 | 0.05 | 0.05 | 94 | 1010.7 |
| 20260504034855 | 8 | 155 | 0.0 | 0.0 | 0.00 | 0.05 | 0.05 | 93 | 1011.1 |
| 20260504034353 | 8 | 161 | 0.0 | 0.0 | 0.00 | 0.05 | 0.05 | 93 | 1010.7 |
| 20260504033850 | 8 | 163 | 0.0 | 0.0 | 0.00 | 0.05 | 0.05 | 94 | 1011.1 |
| 20260504033348 | 8 | 155 | 0.0 | 0.0 | 0.00 | 0.05 | 0.05 | 94 | 1010.7 |
| 20260504032844 | 8 | 159 | 0.0 | 0.0 | 0.00 | 0.05 | 0.05 | 94 | 1011.1 |
| 20260504032342 | 8 | 153 | 0.0 | 0.0 | 0.00 | 0.05 | 0.05 | 94 | 1011.1 |
| 20260504031838 | 8 | 157 | 0.0 | 0.0 | 0.00 | 0.05 | 0.05 | 94 | 1011.4 |
| 20260504031336 | 8 | 155 | 0.0 | 0.0 | 0.00 | 0.05 | 0.05 | 94 | 1011.4 |
| 20260504030832 | 8 | 156 | 0.0 | 0.0 | 0.00 | 0.05 | 0.05 | 93 | 1011.4 |
| 20260504030329 | 8 | 157 | 0.0 | 0.0 | 0.00 | 0.05 | 0.05 | 93 | 1011.1 |
| 20260504025825 | 9 | 155 | 0.0 | 0.0 | 0.00 | 0.05 | 0.05 | 93 | 1011.1 |
| 20260504025322 | 9 | 155 | 0.0 | 0.0 | 0.00 | 0.05 | 0.05 | 92 | 1011.1 |
| 20260504024819 | 9 | 155 | 0.0 | 0.0 | 0.00 | 0.05 | 0.05 | 92 | 1011.4 |
| 20260504024315 | 9 | 155 | 0.0 | 0.0 | 0.00 | 0.05 | 0.05 | 91 | 1011.4 |
| 20260504023812 | 9 | 155 | 0.0 | 0.0 | 0.00 | 0.05 | 0.05 | 92 | 1011.4 |
| 20260504023309 | 9 | 154 | 0.0 | 0.0 | 0.00 | 0.05 | 0.05 | 91 | 1011.7 |
| 20260504022805 | 9 | 153 | 0.0 | 0.0 | 0.00 | 0.05 | 0.05 | 91 | 1011.7 |
| 20260504022301 | 9 | 153 | 0.0 | 0.0 | 0.00 | 0.05 | 0.05 | 89 | 1012.1 |
| 20260504021758 | 9 | 160 | 0.0 | 0.0 | 0.00 | 0.05 | 0.05 | 89 | 1012.1 |
| 20260504021256 | 9 | 158 | 0.0 | 0.0 | 0.00 | 0.05 | 0.05 | 89 | 1012.1 |
| 20260504020752 | 9 | 160 | 0.0 | 0.0 | 0.00 | 0.05 | 0.05 | 88 | 1012.1 |
| 20260504020249 | 10 | 165 | 0.0 | 0.0 | 0.00 | 0.05 | 0.05 | 87 | 1012.1 |
| 20260504015745 | 10 | 172 | 0.0 | 0.0 | 0.00 | 0.05 | 0.05 | 86 | 1012.1 |
| 20260504015242 | 10 | 165 | 1.6 | 1.6 | 0.00 | 0.05 | 0.05 | 85 | 1012.1 |
| 20260504014737 | 10 | 167 | 0.0 | 1.6 | 0.00 | 0.05 | 0.05 | 85 | 1012.4 |
| 20260504014234 | 10 | 200 | 1.6 | 1.6 | 0.18 | 0.05 | 0.05 | 83 | 1012.1 |
| 20260504013732 | 10 | 272 | 8.0 | 11.3 | 0.00 | 0.03 | 0.03 | 80 | 1012.1 |
| 20260504013229 | 10 | 201 | 4.8 | 8.0 | 0.00 | 0.03 | 0.03 | 80 | 1012.4 |
| 20260504012726 | 11 | 213 | 8.0 | 9.7 | 0.00 | 0.03 | 0.03 | 78 | 1012.4 |
| 20260504012224 | 11 | 212 | 4.8 | 4.8 | 0.00 | 0.03 | 0.03 | 76 | 1012.1 |
| 20260504011720 | 11 | 160 | 1.6 | 3.2 | 0.00 | 0.03 | 0.03 | 75 | 1012.1 |
| 20260504011217 | 11 | 138 | 3.2 | 3.2 | 0.00 | 0.03 | 0.03 | 75 | 1011.7 |
| 20260504010713 | 11 | 157 | 3.2 | 4.8 | 0.00 | 0.03 | 0.03 | 74 | 1011.7 |
| 20260504010209 | 11 | 260 | 4.8 | 8.0 | 0.00 | 0.03 | 0.03 | 74 | 1011.7 |
| 20260504005706 | 11 | 135 | 4.8 | 9.7 | 0.00 | 0.03 | 0.03 | 73 | 1011.4 |
| 20260504005203 | 11 | 133 | 3.2 | 3.2 | 0.13 | 0.03 | 0.03 | 74 | 1011.7 |
| 20260504004700 | 11 | 163 | 3.2 | 3.2 | 0.13 | 0.03 | 0.03 | 72 | 1011.4 |
| 20260504004157 | 11 | 160 | 1.6 | 1.6 | 0.00 | 0.00 | 0.00 | 70 | 1011.4 |
| 20260504003653 | 11 | 182 | 3.2 | 4.8 | 0.00 | 0.00 | 0.00 | 67 | 1011.4 |
| 20260504003151 | 12 | 335 | 4.8 | 8.0 | 0.00 | 0.00 | 0.00 | 64 | 1011.4 |
| 20260504002647 | 12 | 107 | 6.4 | 9.7 | 0.00 | 0.00 | 0.00 | 63 | 1011.4 |
| 20260504002145 | 12 | 280 | 0.0 | 1.6 | 0.00 | 0.00 | 0.00 | 62 | 1011.4 |
| 20260504001643 | 12 | 157 | 0.0 | 0.0 | 0.00 | 0.00 | 0.00 | 63 | 1010.7 |
| 20260504001138 | 12 | 160 | 1.6 | 1.6 | 0.00 | 0.00 | 0.00 | 65 | 1010.7 |
| 20260504000636 | 12 | 161 | 0.0 | 0.0 | 0.00 | 0.00 | 0.00 | 60 | 1011.1 |
| 20260504000133 | 12 | 135 | 0.0 | 1.6 | 0.00 | 0.00 | 0.00 | 60 | 1010.4 |
| 20260503235631 | 12 | 145 | 1.6 | 1.6 | 0.00 | 0.00 | 0.00 | 59 | 1010.7 |
| 20260503235127 | 12 | 159 | 0.0 | 0.0 | 0.00 | 0.00 | 0.00 | 60 | 1010.7 |
| 20260503234626 | 12 | 162 | 0.0 | 0.0 | 0.00 | 0.00 | 0.00 | 59 | 1010.7 |
| 20260503234123 | 12 | 160 | 0.0 | 0.0 | 0.00 | 0.00 | 0.00 | 59 | 1010.7 |
| 20260503233620 | 12 | 148 | 0.0 | 0.0 | 0.00 | 0.00 | 0.00 | 58 | 1010.7 |
| 20260503233116 | 12 | 162 | 0.0 | 1.6 | 0.00 | 0.00 | 0.00 | 59 | 1010.7 |
| 20260503232613 | 12 | 171 | 0.0 | 1.6 | 0.00 | 0.00 | 0.00 | 59 | 1011.1 |
| 20260503232110 | 12 | 175 | 1.6 | 3.2 | 0.00 | 0.00 | 0.00 | 58 | 1011.1 |
| 20260503231608 | 12 | 274 | 9.7 | 14.5 | 0.00 | 0.00 | 0.00 | 58 | 1011.4 |
| 20260503231104 | 12 | 252 | 4.8 | 4.8 | 0.00 | 0.00 | 0.00 | 55 | 1011.7 |
| 20260503230601 | 12 | 91 | 3.2 | 3.2 | 0.00 | 0.00 | 0.00 | 55 | 1011.7 |
| 20260503230058 | 13 | 267 | 8.0 | 9.7 | 0.00 | 0.00 | 0.00 | 55 | 1011.4 |
| 20260503225555 | 13 | 160 | 3.2 | 4.8 | 0.00 | 0.00 | 0.00 | 53 | 1011.4 |
| 20260503225050 | 13 | 204 | 3.2 | 3.2 | 0.00 | 0.00 | 0.00 | 53 | 1011.4 |
| 20260503224548 | 13 | 179 | 3.2 | 4.8 | 0.00 | 0.00 | 0.00 | 51 | 1011.4 |
| 20260503224046 | 13 | 250 | 6.4 | 8.0 | 0.00 | 0.00 | 0.00 | 51 | 1011.4 |
| 20260503223544 | 13 | 172 | 3.2 | 3.2 | 0.00 | 0.00 | 0.00 | 52 | 1011.1 |
| 20260503223039 | 13 | 160 | 1.6 | 3.2 | 0.00 | 0.00 | 0.00 | 50 | 1011.1 |
| 20260503222538 | 13 | 163 | 3.2 | 3.2 | 0.00 | 0.00 | 0.00 | 48 | 1011.1 |
| 20260503222035 | 13 | 169 | 1.6 | 1.6 | 0.00 | 0.00 | 0.00 | 49 | 1011.1 |
| 20260503221533 | 13 | 137 | 1.6 | 3.2 | 0.00 | 0.00 | 0.00 | 49 | 1011.1 |
| 20260503221030 | 13 | 152 | 0.0 | 0.0 | 0.00 | 0.00 | 0.00 | 51 | 1011.1 |
| 20260503220526 | 13 | 162 | 0.0 | 0.0 | 0.00 | 0.00 | 0.00 | 50 | 1011.1 |
| 20260503220023 | 13 | 164 | 1.6 | 1.6 | 0.00 | 0.00 | 0.00 | 50 | 1011.1 |
| 20260503215520 | 13 | 161 | 3.2 | 3.2 | 0.00 | 0.00 | 0.00 | 50 | 1011.4 |
| 20260503215017 | 13 | 191 | 0.0 | 0.0 | 0.00 | 0.00 | 0.00 | 51 | 1011.4 |
| 20260503214516 | 13 | 172 | 3.2 | 3.2 | 0.00 | 0.00 | 0.00 | 51 | 1011.4 |
| 20260503214012 | 13 | 163 | 0.0 | 0.0 | 0.00 | 0.00 | 0.00 | 51 | 1011.4 |
| 20260503213511 | 13 | 178 | 1.6 | 1.6 | 0.00 | 0.00 | 0.00 | 50 | 1011.1 |
| 20260503213007 | 13 | 151 | 3.2 | 3.2 | 0.00 | 0.00 | 0.00 | 50 | 1011.1 |
| 20260503212504 | 13 | 190 | 0.0 | 1.6 | 0.00 | 0.00 | 0.00 | 53 | 1011.1 |
| 20260503212001 | 13 | 203 | 4.8 | 4.8 | 0.00 | 0.00 | 0.00 | 52 | 1011.1 |
| 20260503211458 | 13 | 159 | 1.6 | 3.2 | 0.00 | 0.00 | 0.00 | 53 | 1011.1 |
| 20260503210954 | 13 | 141 | 4.8 | 4.8 | 0.00 | 0.00 | 0.00 | 53 | 1011.4 |
| 20260503210451 | 13 | 243 | 6.4 | 8.0 | 0.00 | 0.00 | 0.00 | 52 | 1011.4 |
| 20260503205951 | 13 | 212 | 3.2 | 4.8 | 0.00 | 0.00 | 0.00 | 54 | 1011.1 |
| 20260503205449 | 13 | 200 | 4.8 | 4.8 | 0.00 | 0.00 | 0.00 | 51 | 1011.4 |
| 20260503204945 | 13 | 148 | 3.2 | 4.8 | 0.00 | 0.00 | 0.00 | 50 | 1011.4 |
| 20260503204442 | 13 | 197 | 0.0 | 0.0 | 0.00 | 0.00 | 0.00 | 55 | 1011.4 |
| 20260503203939 | 13 | 234 | 3.2 | 3.2 | 0.00 | 0.00 | 0.00 | 51 | 1011.4 |
| 20260503203437 | 13 | 159 | 3.2 | 4.8 | 0.00 | 0.00 | 0.00 | 50 | 1011.4 |
| 20260503202933 | 13 | 164 | 0.0 | 0.0 | 0.00 | 0.00 | 0.00 | 49 | 1011.4 |
| 20260503202431 | 13 | 243 | 8.0 | 9.7 | 0.00 | 0.00 | 0.00 | 51 | 1011.7 |
| 20260503201930 | 13 | 196 | 6.4 | 8.0 | 0.00 | 0.00 | 0.00 | 50 | 1011.7 |
| 20260503201426 | 13 | 220 | 4.8 | 8.0 | 0.00 | 0.00 | 0.00 | 47 | 1011.7 |
| 20260503200924 | 13 | 263 | 11.3 | 14.5 | 0.00 | 0.00 | 0.00 | 48 | 1011.7 |
| 20260503200420 | 13 | 271 | 6.4 | 11.3 | 0.00 | 0.00 | 0.00 | 48 | 1011.7 |
| 20260503195917 | 13 | 194 | 8.0 | 9.7 | 0.00 | 0.00 | 0.00 | 48 | 1011.7 |
| 20260503195414 | 12 | 189 | 1.6 | 3.2 | 0.00 | 0.00 | 0.00 | 49 | 1011.7 |
| 20260503194911 | 12 | 236 | 4.8 | 8.0 | 0.00 | 0.00 | 0.00 | 46 | 1011.7 |
| 20260503194408 | 12 | 223 | 6.4 | 8.0 | 0.00 | 0.00 | 0.00 | 45 | 1012.1 |
| 20260503193903 | 12 | 182 | 4.8 | 4.8 | 0.00 | 0.00 | 0.00 | 48 | 1012.1 |
| 20260503193359 | 13 | 254 | 6.4 | 9.7 | 0.00 | 0.00 | 0.00 | 48 | 1012.1 |
| 20260503192854 | 13 | 163 | 3.2 | 3.2 | 0.00 | 0.00 | 0.00 | 51 | 1012.1 |
| 20260503192350 | 13 | 210 | 3.2 | 4.8 | 0.00 | 0.00 | 0.00 | 49 | 1012.1 |
| 20260503191847 | 13 | 168 | 1.6 | 1.6 | 0.00 | 0.00 | 0.00 | 50 | 1012.1 |
| 20260503191344 | 13 | 199 | 3.2 | 3.2 | 0.00 | 0.00 | 0.00 | 51 | 1012.1 |
| 20260503190841 | 13 | 262 | 8.0 | 11.3 | 0.00 | 0.00 | 0.00 | 48 | 1012.4 |
| 20260503190338 | 15 | 242 | 6.4 | 9.7 | 0.00 | 0.00 | 0.00 | 46 | 1012.1 |
| 20260503185835 | 13 | 155 | 1.6 | 1.6 | 0.00 | 0.00 | 0.00 | 53 | 1012.1 |
| 20260503185331 | 13 | 97 | 3.2 | 3.2 | 0.00 | 0.00 | 0.00 | 49 | 1012.4 |
| 20260503184826 | 13 | 183 | 3.2 | 3.2 | 0.00 | 0.00 | 0.00 | 47 | 1012.1 |
| 20260503184322 | 13 | 191 | 3.2 | 4.8 | 0.00 | 0.00 | 0.00 | 45 | 1012.1 |
| 20260503183818 | 13 | 317 | 4.8 | 9.7 | 0.00 | 0.00 | 0.00 | 44 | 1012.4 |
| 20260503183315 | 13 | 277 | 4.8 | 8.0 | 0.00 | 0.00 | 0.00 | 48 | 1012.4 |
| 20260503182813 | 13 | 162 | 3.2 | 4.8 | 0.00 | 0.00 | 0.00 | 44 | 1012.4 |
| 20260503182312 | 13 | 231 | 3.2 | 3.2 | 0.00 | 0.00 | 0.00 | 46 | 1012.7 |
| 20260503181809 | 14 | 217 | 1.6 | 3.2 | 0.00 | 0.00 | 0.00 | 48 | 1012.4 |
| 20260503181306 | 15 | 212 | 4.8 | 4.8 | 0.00 | 0.00 | 0.00 | 48 | 1012.7 |
| 20260503180802 | 14 | 254 | 4.8 | 4.8 | 0.00 | 0.00 | 0.00 | 47 | 1012.7 |
| 20260503180300 | 13 | 268 | 4.8 | 4.8 | 0.00 | 0.00 | 0.00 | 49 | 1012.7 |
| 20260503175756 | 14 | 205 | 3.2 | 3.2 | 0.00 | 0.00 | 0.00 | 46 | 1013.1 |
| 20260503175254 | 13 | 202 | 4.8 | 4.8 | 0.00 | 0.00 | 0.00 | 44 | 1013.1 |
| 20260503174749 | 13 | 165 | 3.2 | 3.2 | 0.00 | 0.00 | 0.00 | 52 | 1012.7 |
| 20260503174248 | 14 | 189 | 3.2 | 4.8 | 0.00 | 0.00 | 0.00 | 47 | 1013.1 |
| 20260503173748 | 13 | 212 | 3.2 | 3.2 | 0.00 | 0.00 | 0.00 | 42 | 1013.1 |
| 20260503173244 | 12 | 164 | 1.6 | 4.8 | 0.00 | 0.00 | 0.00 | 45 | 1013.5 |
| 20260503172741 | 13 | 286 | 3.2 | 4.8 | 0.00 | 0.00 | 0.00 | 47 | 1013.1 |
| 20260503172238 | 12 | 105 | 3.2 | 3.2 | 0.00 | 0.00 | 0.00 | 48 | 1013.5 |
| 20260503171735 | 13 | 221 | 6.4 | 8.0 | 0.00 | 0.00 | 0.00 | 45 | 1013.1 |
| 20260503171232 | 13 | 343 | 6.4 | 11.3 | 0.00 | 0.00 | 0.00 | 48 | 1013.5 |
| 20260503170729 | 12 | 167 | 1.6 | 1.6 | 0.00 | 0.00 | 0.00 | 49 | 1013.5 |
| 20260503170226 | 12 | 357 | 4.8 | 8.0 | 0.00 | 0.00 | 0.00 | 45 | 1013.5 |
| 20260503160147 | 11 | 219 | 4.8 | 8.0 | 0.00 | 0.00 | 0.00 | 47 | 1014.5 |
| 20260503150617 | 10 | 183 | 8.0 | 11.3 | 0.00 | 0.00 | 0.00 | 46 | 1015.2 |
| 20260503150114 | 10 | 281 | 6.4 | 11.3 | 0.00 | 0.00 | 0.00 | 48 | 1015.2 |
| 20260503131007 | 7 | 143 | 1.6 | 3.2 | 0.00 | 0.00 | 0.00 | 67 | 1015.6 |
| 20260503130504 | 8 | 282 | 8.0 | 11.3 | 0.00 | 0.00 | 0.00 | 65 | 1015.6 |
| 20260503110355 | 3 | 150 | 0.0 | 0.0 | 0.00 | 0.00 | 0.00 | 95 | 1015.2 |
| 20260503090241 | 3 | 161 | 0.0 | 0.0 | 0.00 | 0.00 | 0.00 | 84 | 1014.9 |
| 20260503081208 | 4 | 203 | 0.0 | 1.6 | 0.00 | 0.00 | 0.00 | 87 | 1014.9 |
| 20260503080704 | 4 | 160 | 1.6 | 1.6 | 0.00 | 0.00 | 0.00 | 87 | 1014.9 |
| 20260503080201 | 4 | 158 | 0.0 | 0.0 | 0.00 | 0.00 | 0.00 | 87 | 1014.9 |
| 20260503072637 | 4 | 164 | 0.0 | 0.0 | 0.00 | 0.00 | 0.00 | 88 | 1014.9 |
| 20260503072134 | 4 | 157 | 0.0 | 0.0 | 0.00 | 0.00 | 0.00 | 88 | 1014.9 |